Regional Weather Roundup
Issued by NWS

Home | Current Version | Previous Version | Graphics & Text | Print | Product List | Glossary On
Versions: 1 2 3 4 5 6 7 8 9 10 11 12 13 14 15 16 17 18 19 20 21 22 23 24 25 26 27
000
ASUS45 KBOI 021610
RWRID

IDAHO REGIONAL WEATHER ROUNDUP
NATIONAL WEATHER SERVICE BOISE ID
1000 AM MDT MON MAY 02 2016

NOTE: "FAIR" INDICATES FEW OR NO CLOUDS BELOW 12000 FEET
WITH NO SIGNIFICANT WEATHER AND/OR OBSTRUCTIONS TO VISIBILITY

IDZ012-014-021700-
SOUTHWEST IDAHO


CITY           SKY/WX    TMP DP  RH WIND       PRES   REMARKS
BOISE          SUNNY     61  35  37 SE9       30.18R
CALDWELL       SUNNY     61  37  41 SE10      30.18R
MOUNTAIN HOME  SUNNY     57  33  40 E14       30.19S
$$

IDZ016-017-021700-
SOUTHCENTRAL IDAHO


CITY           SKY/WX    TMP DP  RH WIND       PRES   REMARKS
BURLEY         SUNNY     53  36  52 N5        30.21R
JEROME         SUNNY     55  31  39 E13       30.22R
TWIN FALLS     SUNNY     53  35  50 NE6       30.21R
$$

IDZ019>023-021700-
SOUTHEAST IDAHO


CITY           SKY/WX    TMP DP  RH WIND       PRES   REMARKS
IDAHO FALLS    SUNNY     52  24  33 VRB6      30.27R
POCATELLO      SUNNY     54  26  34 E6        30.25S
REXBURG        SUNNY     49  25  39 VRB5      30.27S
$$

IDZ006-010-011-018-031-032-021700-
CENTRAL IDAHO MOUNTAINS


CITY           SKY/WX    TMP DP  RH WIND       PRES   REMARKS
MCCALL         SUNNY     50  37  61 CALM      30.20S
HAILEY         SUNNY     52  27  37 NW7       30.27R
STANLEY          N/A     44  27  51 N3        30.28F
SALMON         SUNNY     48  32  53 CALM      30.24F
CHALLIS        SUNNY     50  28  42 CALM      30.25S
$$

IDZ002-004-006-007-026-021700-
NORTHERN IDAHO


CITY           SKY/WX    TMP DP  RH WIND       PRES   REMARKS
LEWISTON       SUNNY     60  48  64 NE7       30.13R
LOWELL           N/A     54  43  66 CALM      30.19F
COEUR D`ALENE  SUNNY     61  43  51 NE13      30.12S
MULLAN PASS    SUNNY     50  32  50 VRB6      30.23S
$$




USA.gov is the U.S. government's official web portal to all federal, state and local government web resources and services.